TimeEDT,TemperatureF,Dew PointF,Humidity,Sea Level PressureIn,VisibilityMPH,Wind Direction,Wind SpeedMPH,Gust SpeedMPH,PrecipitationIn,Events,Conditions,WindDirDegrees,DateUTC
12:15 AM,50.0,50.0,100,30.13,7.0,Calm,Calm,-,N/A,Rain,Light Rain,0,2012-10-10 04:15:00
12:35 AM,50.0,50.0,100,30.12,7.0,Calm,Calm,-,0.01,Rain,Light Rain,0,2012-10-10 04:35:00
12:55 AM,50.0,48.2,94,30.13,5.0,Calm,Calm,-,0.01,Rain,Light Rain,0,2012-10-10 04:55:00
1:15 AM,48.2,48.2,100,30.12,5.0,Calm,Calm,-,N/A,Rain,Light Rain,0,2012-10-10 05:15:00
1:35 AM,48.2,48.2,100,30.12,5.0,Calm,Calm,-,0.01,Rain,Light Rain,0,2012-10-10 05:35:00
1:55 AM,48.2,48.2,100,30.12,5.0,Calm,Calm,-,0.02,Rain,Light Rain,0,2012-10-10 05:55:00
2:15 AM,48.2,48.2,100,30.12,7.0,Calm,Calm,-,N/A,Rain,Light Rain,0,2012-10-10 06:15:00
2:35 AM,48.2,48.2,100,30.12,8.0,Calm,Calm,-,0.01,Rain,Light Rain,0,2012-10-10 06:35:00
2:55 AM,48.2,48.2,100,30.11,7.0,Calm,Calm,-,0.03,Rain,Light Rain,0,2012-10-10 06:55:00
3:15 AM,48.2,48.2,100,30.11,7.0,Calm,Calm,-,0.01,Rain,Light Rain,0,2012-10-10 07:15:00
3:35 AM,48.2,48.2,100,30.11,6.0,Calm,Calm,-,0.02,Rain,Light Rain,0,2012-10-10 07:35:00
3:55 AM,48.2,48.2,100,30.10,7.0,Calm,Calm,-,0.05,Rain,Light Rain,0,2012-10-10 07:55:00
4:15 AM,48.2,48.2,100,30.09,7.0,Calm,Calm,-,0.01,Rain,Light Rain,0,2012-10-10 08:15:00
4:35 AM,46.4,46.4,100,30.10,9.0,Calm,Calm,-,0.03,Rain,Light Rain,0,2012-10-10 08:35:00
4:55 AM,48.2,48.2,100,30.10,8.0,Calm,Calm,-,0.05,Rain,Light Rain,0,2012-10-10 08:55:00
5:15 AM,48.2,48.2,100,30.10,5.0,Calm,Calm,-,0.01,Rain,Light Rain,0,2012-10-10 09:15:00
5:35 AM,48.2,48.2,100,30.09,0.2,Calm,Calm,-,0.04,Rain,Light Rain,0,2012-10-10 09:35:00
5:55 AM,48.2,48.2,100,30.09,2.5,Calm,Calm,-,0.06,Rain,Light Rain,0,2012-10-10 09:55:00
6:15 AM,48.2,48.2,100,30.10,0.5,Calm,Calm,-,0.01,Rain,Light Rain,0,2012-10-10 10:15:00
6:35 AM,48.2,48.2,100,30.10,5.0,Calm,Calm,-,0.04,Rain,Rain,0,2012-10-10 10:35:00
6:55 AM,48.2,48.2,100,30.11,5.0,Calm,Calm,-,0.06,Rain,Light Rain,0,2012-10-10 10:55:00
7:15 AM,48.2,48.2,100,30.11,4.0,Calm,Calm,-,0.01,Rain,Light Rain,0,2012-10-10 11:15:00
7:35 AM,48.2,48.2,100,30.12,0.2,Calm,Calm,-,0.04,Rain,Light Rain,0,2012-10-10 11:35:00
7:55 AM,48.2,48.2,100,30.12,0.5,Calm,Calm,-,0.07,Rain,Light Rain,0,2012-10-10 11:55:00
8:35 AM,51.8,51.8,100,30.13,0.2,Calm,Calm,-,0.04,Rain,Rain,0,2012-10-10 12:35:00
8:55 AM,53.6,53.6,100,30.13,0.2,Calm,Calm,-,0.07,Rain,Light Rain,0,2012-10-10 12:55:00
9:15 AM,55.4,55.4,100,30.14,4.0,Calm,Calm,-,0.01,Rain,Light Rain,0,2012-10-10 13:15:00
9:35 AM,57.2,57.2,100,30.14,7.0,NW,8.1,-,0.02,Rain,Light Rain,320,2012-10-10 13:35:00
9:55 AM,59.0,57.2,94,30.14,8.0,NW,6.9,-,0.03,Rain,Light Rain,320,2012-10-10 13:55:00
10:15 AM,62.6,57.2,82,30.15,8.0,NW,10.4,-,N/A,Rain,Light Rain,320,2012-10-10 14:15:00
10:35 AM,64.4,57.2,77,30.15,8.0,NW,8.1,-,N/A,Rain,Light Rain,310,2012-10-10 14:35:00
10:55 AM,64.4,57.2,77,30.15,9.0,WNW,9.2,-,0.01,,Clear,290,2012-10-10 14:55:00
11:15 AM,66.2,57.2,73,30.15,9.0,NW,6.9,-,0.01,Rain,Light Rain,320,2012-10-10 15:15:00
11:35 AM,66.2,57.2,73,30.14,10.0,NNW,9.2,-,0.05,Rain,Light Rain,330,2012-10-10 15:35:00
11:55 AM,68.0,57.2,68,30.14,9.0,NW,9.2,-,0.06,Rain,Light Rain,310,2012-10-10 15:55:00
12:15 PM,68.0,57.2,68,30.14,10.0,NW,12.7,-,N/A,Rain,Light Rain,310,2012-10-10 16:15:00
12:35 PM,69.8,59.0,68,30.12,9.0,NW,8.1,-,N/A,Rain,Light Rain,320,2012-10-10 16:35:00
12:55 PM,69.8,59.0,68,30.12,9.0,West,9.2,-,0.01,Rain,Light Rain,280,2012-10-10 16:55:00
1:15 PM,71.6,59.0,64,30.11,9.0,West,8.1,-,N/A,Rain,Light Rain,280,2012-10-10 17:15:00
1:35 PM,71.6,59.0,64,30.09,9.0,West,6.9,-,N/A,Rain,Light Rain,280,2012-10-10 17:35:00
1:55 PM,71.6,59.0,64,30.08,9.0,NW,8.1,-,0.01,Rain,Light Rain,310,2012-10-10 17:55:00
2:15 PM,73.4,59.0,61,30.07,10.0,WNW,9.2,-,N/A,,Clear,290,2012-10-10 18:15:00
2:35 PM,73.4,59.0,61,30.06,10.0,NW,9.2,-,N/A,Rain,Light Rain,310,2012-10-10 18:35:00
2:55 PM,75.2,59.0,57,30.05,9.0,WNW,8.1,-,N/A,Rain,Light Rain,300,2012-10-10 18:55:00
3:15 PM,75.2,59.0,57,30.04,9.0,West,11.5,-,N/A,Rain,Light Rain,260,2012-10-10 19:15:00
3:35 PM,75.2,57.2,53,30.03,10.0,WNW,9.2,-,N/A,Rain,Light Rain,290,2012-10-10 19:35:00
3:55 PM,77.0,57.2,50,30.02,9.0,West,9.2,-,N/A,Rain,Light Rain,280,2012-10-10 19:55:00
4:15 PM,75.2,57.2,53,30.02,9.0,WNW,9.2,-,N/A,,Clear,300,2012-10-10 20:15:00
4:35 PM,77.0,57.2,50,30.02,10.0,WNW,8.1,-,N/A,Rain,Light Rain,300,2012-10-10 20:35:00
4:55 PM,77.0,57.2,50,30.02,10.0,WNW,9.2,-,N/A,Rain,Light Rain,300,2012-10-10 20:55:00
5:15 PM,75.2,57.2,53,30.03,9.0,WNW,8.1,-,N/A,Rain,Light Rain,290,2012-10-10 21:15:00
5:35 PM,75.2,55.4,50,30.03,10.0,NW,11.5,-,N/A,,Clear,310,2012-10-10 21:35:00
5:55 PM,73.4,57.2,57,30.03,9.0,WNW,5.8,-,0.01,Rain,Light Rain,300,2012-10-10 21:55:00
6:15 PM,71.6,57.2,60,30.04,10.0,NW,6.9,-,N/A,Rain,Light Rain,310,2012-10-10 22:15:00
6:35 PM,71.6,57.2,60,30.05,9.0,NW,5.8,-,N/A,Rain,Light Rain,310,2012-10-10 22:35:00
6:55 PM,69.8,59.0,68,30.05,10.0,WNW,5.8,-,0.01,Rain,Light Rain,300,2012-10-10 22:55:00
7:15 PM,68.0,59.0,73,30.06,10.0,West,3.5,-,N/A,Rain,Light Rain,260,2012-10-10 23:15:00
7:55 PM,62.6,60.8,94,30.08,10.0,WSW,3.5,-,0.01,Rain,Light Rain,240,2012-10-10 23:55:00
8:15 PM,62.6,60.8,94,30.08,8.0,Calm,Calm,-,N/A,Rain,Light Rain,0,2012-10-11 00:15:00
8:35 PM,60.8,59.0,94,30.09,7.0,Calm,Calm,-,0.01,Rain,Light Rain,0,2012-10-11 00:35:00
8:55 PM,60.8,59.0,94,30.09,7.0,Calm,Calm,-,0.02,Rain,Light Rain,0,2012-10-11 00:55:00
9:15 PM,60.8,59.0,94,30.10,6.0,Calm,Calm,-,N/A,Rain,Light Rain,0,2012-10-11 01:15:00
9:35 PM,60.8,59.0,94,30.11,5.0,Calm,Calm,-,0.01,Rain,Light Rain,0,2012-10-11 01:35:00
9:55 PM,60.8,59.0,94,30.11,5.0,Calm,Calm,-,0.01,Rain,Light Rain,0,2012-10-11 01:55:00
10:15 PM,59.0,59.0,100,30.12,5.0,Calm,Calm,-,N/A,Rain,Light Rain,0,2012-10-11 02:15:00
10:35 PM,59.0,57.2,94,30.12,5.0,Calm,Calm,-,0.01,Rain,Light Rain,0,2012-10-11 02:35:00
10:55 PM,59.0,57.2,94,30.13,5.0,Calm,Calm,-,0.02,Rain,Light Rain,0,2012-10-11 02:55:00
11:15 PM,59.0,57.2,94,30.13,4.0,Calm,Calm,-,N/A,Rain,Light Rain,0,2012-10-11 03:15:00
11:35 PM,57.2,57.2,100,30.13,4.0,Calm,Calm,-,0.01,Rain,Light Rain,0,2012-10-11 03:35:00
11:55 PM,57.2,57.2,100,30.13,4.0,Calm,Calm,-,0.01,Rain,Light Rain,0,2012-10-11 03:55:00